Погода в Выборге

Погода в Выборге : погода сейчас, прогноз погоды и архив. Всё, что Вы хотите узнать о погоде в Выборге!

Хотите узнать прогноз погоды в Выборге? Тогда Вам сюда: Погода в Выборге

Поиск расширенной информации на нашем сайте:

Другие новости

Новости СМИ2

Главная страница сайта

Новости сайта

03.07.2017

Напоминаем, что на нашем специализированном сайте Метеоцентр.Азия вы можете получить высокодетализированные автоматические прогнозы погоды по пунктам России, СНГ и мира в авиационном формате (включающие направление и скорость ветра, видимость, явления погоды, количество и форму облачности, нижнюю и верхнюю границу облачности).


Погода в Выборге - сегодня

Время (UTC), дата Ветер
(°,м/с) 
Видим.   Явления Облачность Т
(°С)
Тd
(°С)
f(%) Тe
(°С)
Pmin
(гПа)
dP
(гПа)
Po
(мм)
O2
(г/м3)
Тmin Tmax R s Состояние
почвы
18 17.11.17 240 (ЮЗ) 6{10}  10 км  {ливн. осадки}  3/0 верхняя 
[Ci fib]
+3.4 +1.5 87 +1  1002.3  0.3  751  298    +5.2     
21 17.11.17 250 (З) 6{14}  10 км    3/0 верхняя 
[Ci fib]
+3.4 +0.8 83 +1  1002.4  -0.1  751  299           
00 18.11.17 250 (З) 10 км    8/0 средняя, верхняя 
[Ac trans|Ci fib]
+4 +0.8 80 +2  1002.4  0.1  751  298           
03 18.11.17 250 (З) 5{10}  10 км    5/0 средняя, верхняя 
[Ac trans|Ci fib]
+3.8 +1.1 83 +1  1002.1  -0.3  750  298  +3.4         
06 18.11.17 220 (ЮЗ) 10 км    8/4 600 м кучево-дожд., средняя 
[Cb cap|Ac trans]
+4.3 +3.1 92 +2  1001.4  -0.7  750  297  +3.4         
09 18.11.17 230 (ЮЗ) 8-11{12}  10 км  {ливн. осадки}  9/8 600 м кучево-дожд., средняя 
[Cb cap|Ac trans]
+5 +3.8 92 +2  1001.8  0.4  750  296           
12 18.11.17 220 (ЮЗ) 10-13{15}  10 км  слаб. ливневой дождь  10/9 720 м кучево-дожд., средняя 
[Cb cap|As op]
+4.7 +3.7 93 +1  1000.7  -1.1  749  296           
15 18.11.17 210 (ЮЗ) 9-12{14}  4000 м  ливневой дождь  10/10 450 м кучево-дожд. 
[Cb cap]
+4.5 +3.5 93 +1  1000.6  0.1  749  296         
18 18.11.17 210 (ЮЗ) 9-11{14}  10 км  в посл. час ливневой дождь  10/8 540 м кучево-дожд., средняя 
[Cb cap|As op]
+4.5 +2.7 88 +1  1000.5  0.1  749  297    +5.1     
21 18.11.17 200 (Ю) 7{11}  10 км    10/8 500 м кучево-дожд., средняя 
[Cb cap|As op]
+4.3 +2.6 89 +1  1000.9  0.4  749  297           
00 19.11.17 200 (Ю) 6{10}  10 км    10/8 720 м кучево-дожд., средняя 
[Cb cap|As op]
+4.1 +1.9 86 +1  1000.9  749  297           
03 19.11.17 180 (Ю) 10 км    10/8 720 м кучево-дожд., средняя 
[Cb cap|As op]
+3.7 +1.8 87 +1  1000.7  -0.2  749  298  +3.5    0.7     
06 19.11.17 170 (Ю) 20000 м    10/8 800 м кучево-дожд., средняя 
[Cb cap|As op]
+3.2 +1.2 87 +1  1001.2  0.5  750  298  +3.2         
09 19.11.17 150 (ЮВ) 10 км    10/10 840 м 
[Sc diur, vesp]
+3 +0.9 86 +1  1001.6  0.4  750  299           
12 19.11.17 150 (ЮВ) 10 км    10/10 960 м 
[Sc]
+2.9 +0.3 83 1001.5  0.1  750  299           
15 19.11.17 130 (ЮВ) 10 км    10/0 средняя 
[Ac As]
+1.7 -0.5 85 1001.9  0.4  750  300           
18 19.11.17 080 (В) 10 км    10/10 800 м 
[Sc]
+0.6 -0.9 90 1001.9  750  302    +3.2       
21 19.11.17 100 (В) 10 км    10/10 870 м 
[Sc]
+0.9 -0.7 89 -1  1002.4  0.5  751  302           
00 20.11.17 100 (В) 10 км    10/0 средняя 
[Ac und]
+0.6 -1.1 88 -1  1002.4  751  302           
03 20.11.17 080 (В) 10 км    10/0 средняя 
[Ac und]
-0.5 -1.4 94 -1  1002.5  751  303  -0.5         
06 20.11.17 070 (В) 10 км  в посл. час ливневой снег  9/6 600 м кучево-дожд., средняя 
[Cb cap|Ac trans]
-0.7 -1.3 96 1002.8  0.4  751  303  -0.7    0.0  <0.5  равномерный
мокрый или
старый снег
100% 
09 20.11.17 070 (В) 10 км  слаб. ливневой снег  9/9 600 м кучево-дожд. 
[Cb cap]
-0.2 -0.9 95 -1  1004.1  1.3  752  303           
12 20.11.17 060 (СВ) 10 км  слаб. ливневой снег  10/10 600 м кучево-дожд. 
[Cb cap]
+0 -0.7 95 -1  1004.6  0.5  752  303           
15 20.11.17 070 (В) 4000 м  слаб. ливневой снег  10/10 600 м кучево-дожд. 
[Cb cap]
-0.2 -0.5 98 -1  1005.6  753  304         
18 20.11.17 080 (В) 4000 м  слаб. ливневой снег  10/10 600 м кучево-дожд. 
[Cb cap]
-0.1 -0.3 99 -1  1006.5  0.9  754  304    +0.1     
Время (UTC), дата Ветер
(°,м/с) 
Видим.   Явления Облачность Т
(°С)
Тd
(°С)
f(%) Тe
(°С)
Pmin
(гПа)
dP
(гПа)
Po
(мм)
O2
(г/м3)
Тmin Tmax R s Состояние
почвы

Для получения пояснительной информации подведите курсор к названию столбца.

ПОГОДА в Выборге - архив

Всё, что Вы хотите узнать о погоде в Выборге - удобно и подробно!

Выберите нужную дату (начиная с 1 января 2015* года) и нажмите кнопку "Найти".
Будут отображены архивные сводки погоды по пункту Выборг, начиная с указанной даты.


Отображать данные в формате CSV (для использования в таблицах Excel)


Внимание! Наш архив погоды предназначен исключительно для личного некоммерческого использования в познавательных целях. Если Вам необходимы официальные справки о состоянии погоды (для производственных, юридических, коммерческих и т.п. целей), обращайтесь в органы Росгидромета.

*Примечание: данная дата относится к архиву по метеостанциям СССР (Россия, СНГ, Балтия).
Архив по метеостанциям Зарубежной Европы и Азии (кроме Китая) хранится 10 дней, по другим регионам земного шара (Китай, Африка, Америка, Австралия, Океания) - 1 день.

Выборг - район местоположения метеостанции


Название, широта, долгота, высота метеостанции:
Выборг 60.7°ш. 28.7°д. 13 м над ур. моря [Российская Федерация]

Дополнительная информация

В oтличие oт бoльшинства пoгoдных сайтoв мы публикуем пoдрoбную метеoинфoрмацию в детальнoм прoфессиoнальнoм фoрмате.

Характеристики температуры и влажнoсти вoздуха измеряются на высoте 2 м в тени вдали oт зданий и деревьев.
Скoрoсть ветра измеряется на высoте 10 м (на урoвне рoста челoвека скoрoсть ветра ниже в 1.5-2 раза). Если метеoстанция нахoдится в гoрoде или в лесу, тo скoрoсть ветра занижена на 2-4 м/с пo сравнению с oткрытым местoм. Скoрoсть ветра над акватoриями крупных рек и oзёр, а также на вершинах хoлмoв на 2-5 м/с выше, чем в oбычных услoвиях.
Атмoсфернoе давление в разных тoчках местнoсти мoжет значительнo oтличаться oт давления на метеoстанции, в зависимoсти oт услoвий рельефа (при пoдъёме на 10 м давление пoнижается примернo на 1 мм рт.ст.).